timestamp,surface_pressure_avg,surface_temp_avg,battery_voltage,lat,long
2021-10-31 00:09:01+00:00,240.4681,10.19,12.73,47.84626,-54.09684
2021-10-31 00:19:01+00:00,237.6748,10.19,12.73,47.84626,-54.09684
2021-10-31 00:29:01+00:00,235.9832,10.19,12.73,47.84626,-54.09684
2021-10-31 00:39:01+00:00,237.2114,10.2,12.73,47.84626,-54.09684
2021-10-31 00:49:01+00:00,238.6296,10.2,12.73,47.84626,-54.09684
2021-10-31 00:59:01+00:00,236.9264,10.17,12.73,47.84626,-54.09684
2021-10-31 01:09:01+00:00,236.6164,10.19,12.73,47.84626,-54.09684
2021-10-31 01:19:00+00:00,234.6815,10.2,12.65,47.84626,-54.09684
2021-10-31 01:29:00+00:00,231.753,10.2,12.65,47.84626,-54.09684
2021-10-31 01:39:00+00:00,229.253,10.17,12.65,47.84626,-54.09684
2021-10-31 01:49:00+00:00,226.058,10.1,12.65,47.84626,-54.09684
2021-10-31 01:59:00+00:00,220.3082,10.1,12.65,47.84626,-54.09684
2021-10-31 02:09:00+00:00,219.9398,10.03,12.65,47.84626,-54.09684
2021-10-31 02:19:00+00:00,223.5131,10.08,12.65,47.84626,-54.09684
2021-10-31 02:29:00+00:00,225.4665,10.1,12.65,47.84626,-54.09684
2021-10-31 02:39:00+00:00,225.1813,10.1,12.65,47.84626,-54.09684
2021-10-31 02:49:00+00:00,229.2431,10.1,12.65,47.84626,-54.09684
2021-10-31 02:59:00+00:00,237.5831,10.1,12.65,47.84626,-54.09684
2021-10-31 03:09:00+00:00,237.5831,10.15,12.65,47.84626,-54.09684
2021-10-31 03:19:00+00:00,234.3148,10.2,12.65,47.84626,-54.09684
2021-10-31 03:29:00+00:00,236.1064,10.18,12.65,47.84626,-54.09684
2021-10-31 03:39:00+00:00,241.5847,10.16,12.65,47.84626,-54.09684
2021-10-31 03:49:00+00:00,242.4898,10.2,12.65,47.84626,-54.09684
2021-10-31 03:59:00+00:00,243.0081,10.2,12.65,47.84626,-54.09684
2021-10-31 04:09:00+00:00,246.6548,10.2,12.65,47.84626,-54.09684
2021-10-31 04:19:00+00:00,253.1514,10.2,12.65,47.84626,-54.09684
2021-10-31 04:29:00+00:00,260.7347,10.2,12.65,47.84626,-54.09684
2021-10-31 04:39:00+00:00,265.7397,10.1,12.65,47.84626,-54.09684
2021-10-31 04:49:00+00:00,268.793,10.0,12.65,47.84626,-54.09684
2021-10-31 04:59:00+00:00,274.5964,9.9,12.65,47.84626,-54.09684
2021-10-31 05:09:00+00:00,278.863,9.91,12.65,47.84626,-54.09684
2021-10-31 05:19:00+00:00,279.8513,9.76,12.65,47.84626,-54.09684
2021-10-31 05:29:00+00:00,284.7498,9.55,12.65,47.84626,-54.09684
2021-10-31 05:39:00+00:00,293.1481,9.72,12.65,47.84626,-54.09684
2021-10-31 05:49:00+00:00,293.9764,9.9,12.65,47.84626,-54.09684
2021-10-31 05:59:00+00:00,292.823,9.9,12.65,47.84626,-54.09684
2021-10-31 06:09:00+00:00,299.0981,9.8,12.65,47.84626,-54.09684
2021-10-31 06:19:00+00:00,305.8948,9.84,12.65,47.84626,-54.09684
2021-10-31 06:29:00+00:00,305.5663,9.9,12.65,47.84626,-54.09684
2021-10-31 06:39:00+00:00,308.1813,9.8,12.65,47.84626,-54.09684
2021-10-31 06:49:00+00:00,313.3346,9.9,12.65,47.84626,-54.09684
2021-10-31 06:59:00+00:00,314.6346,10.0,12.65,47.84626,-54.09684
2021-10-31 07:09:00+00:00,310.2213,10.08,12.65,47.84626,-54.09684
2021-10-31 07:19:00+00:00,309.4747,10.17,12.65,47.84626,-54.09684
2021-10-31 07:29:00+00:00,307.3713,10.15,12.65,47.84626,-54.09684
2021-10-31 07:39:00+00:00,306.1196,10.1,12.65,47.84626,-54.09684
2021-10-31 07:49:00+00:00,305.5548,10.1,12.65,47.84626,-54.09684
2021-10-31 07:59:00+00:00,305.0563,10.0,12.65,47.84626,-54.09684
2021-10-31 08:09:00+00:00,304.1964,10.0,12.65,47.84626,-54.09684
2021-10-31 08:19:01+00:00,308.6146,10.0,12.65,47.84626,-54.09684
2021-10-31 08:29:01+00:00,307.658,10.1,12.65,47.84626,-54.09684
2021-10-31 08:39:01+00:00,305.528,10.07,12.65,47.84626,-54.09684
2021-10-31 08:49:01+00:00,303.6463,10.03,12.65,47.84626,-54.09684
2021-10-31 08:59:01+00:00,300.1998,10.0,12.65,47.84626,-54.09684
2021-10-31 09:09:01+00:00,290.718,10.06,12.65,47.84626,-54.09684
2021-10-31 09:19:00+00:00,289.3964,10.07,12.65,47.84626,-54.09684
2021-10-31 09:29:00+00:00,296.228,10.1,12.65,47.84626,-54.09684
2021-10-31 09:39:00+00:00,293.3281,10.12,12.65,47.84626,-54.09684
2021-10-31 09:49:00+00:00,284.9047,10.18,12.65,47.84626,-54.09684
2021-10-31 09:59:00+00:00,286.6381,10.19,12.65,47.84626,-54.09684
2021-10-31 10:09:00+00:00,286.2681,10.2,12.65,47.84626,-54.09684
2021-10-31 10:19:01+00:00,280.2964,10.19,12.57,47.84626,-54.09684
2021-10-31 10:29:01+00:00,273.5748,10.2,12.57,47.84626,-54.09684
2021-10-31 10:39:01+00:00,274.0015,9.83,12.57,47.84626,-54.09684
2021-10-31 10:49:01+00:00,267.2731,9.6,12.57,47.84626,-54.09684
2021-10-31 10:59:01+00:00,256.1631,9.85,12.57,47.84626,-54.09684
2021-10-31 11:09:01+00:00,252.8264,10.14,12.57,47.84626,-54.09684
2021-10-31 11:19:01+00:00,256.7498,10.2,14.16,47.84626,-54.09684
2021-10-31 11:29:01+00:00,254.0597,9.5,14.16,47.84626,-54.09684
2021-10-31 11:39:01+00:00,249.873,9.22,14.16,47.84626,-54.09684
2021-10-31 11:49:01+00:00,251.3748,9.27,14.16,47.84626,-54.09684
2021-10-31 11:59:01+00:00,250.3931,9.38,14.16,47.84626,-54.09684
2021-10-31 12:09:01+00:00,243.8097,9.3,14.16,47.84626,-54.09684
2021-10-31 12:19:00+00:00,238.6298,9.16,14.72,47.84626,-54.09684
2021-10-31 12:29:00+00:00,236.563,9.2,14.72,47.84626,-54.09684
2021-10-31 12:39:00+00:00,236.7348,9.3,14.72,47.84626,-54.09684
2021-10-31 12:49:00+00:00,238.0881,9.3,14.72,47.84626,-54.09684
2021-10-31 12:59:00+00:00,238.4831,9.31,14.72,47.84626,-54.09684
2021-10-31 13:09:00+00:00,232.3814,9.3,14.72,47.84626,-54.09684
2021-10-31 13:19:00+00:00,232.0199,9.3,14.72,47.84626,-54.09684
2021-10-31 13:29:00+00:00,231.7163,9.3,14.72,47.84626,-54.09684
2021-10-31 13:39:00+00:00,231.1747,9.3,14.72,47.84626,-54.09684
2021-10-31 13:49:00+00:00,229.9398,9.3,14.72,47.84626,-54.09684
2021-10-31 13:59:00+00:00,228.0931,9.3,14.72,47.84626,-54.09684
2021-10-31 14:09:00+00:00,226.2981,9.3,14.72,47.84626,-54.09684
2021-10-31 14:19:00+00:00,227.1631,9.3,14.64,47.84626,-54.09684
2021-10-31 14:29:00+00:00,227.8581,9.3,14.64,47.84626,-54.09684
2021-10-31 14:39:00+00:00,226.3781,9.31,14.64,47.84626,-54.09684
2021-10-31 14:49:00+00:00,225.3631,9.38,14.64,47.84626,-54.09684
2021-10-31 14:59:00+00:00,229.5663,9.41,14.64,47.84626,-54.09684
2021-10-31 15:09:00+00:00,233.7964,9.5,14.64,47.84626,-54.09684
2021-10-31 15:19:01+00:00,235.6498,9.76,14.48,47.84626,-54.09684
2021-10-31 15:29:01+00:00,229.1747,10.05,14.48,47.84626,-54.09684
2021-10-31 15:39:01+00:00,224.128,10.22,14.48,47.84626,-54.09684
2021-10-31 15:49:01+00:00,232.1564,10.29,14.48,47.84626,-54.09684
2021-10-31 15:59:01+00:00,242.1698,10.2,14.48,47.84626,-54.09684
2021-10-31 16:09:01+00:00,247.0814,10.1,14.48,47.84626,-54.09684
2021-10-31 16:19:00+00:00,254.7981,10.1,14.4,47.84626,-54.09684
2021-10-31 16:29:00+00:00,265.1547,10.1,14.4,47.84626,-54.09684
2021-10-31 16:39:00+00:00,271.6781,10.1,14.4,47.84626,-54.09684
2021-10-31 16:49:00+00:00,271.0847,10.18,14.4,47.84626,-54.09684
2021-10-31 16:59:00+00:00,274.6598,10.2,14.4,47.84626,-54.09684
2021-10-31 17:09:00+00:00,278.7164,10.17,14.4,47.84626,-54.09684
2021-10-31 17:19:00+00:00,281.8398,10.19,14.32,47.84626,-54.09684
2021-10-31 17:29:00+00:00,284.1013,10.2,14.32,47.84626,-54.09684
2021-10-31 17:39:00+00:00,286.6246,10.2,14.32,47.84626,-54.09684
2021-10-31 17:49:00+00:00,286.9749,10.18,14.32,47.84626,-54.09684
2021-10-31 17:59:00+00:00,291.0297,10.2,14.32,47.84626,-54.09684
2021-10-31 18:09:00+00:00,296.2346,10.2,14.32,47.84626,-54.09684
2021-10-31 18:19:00+00:00,303.52299999999997,10.2,14.16,47.84626,-54.09684
2021-10-31 18:29:00+00:00,307.7396,10.2,14.16,47.84626,-54.09684
2021-10-31 18:39:00+00:00,312.46299999999997,10.2,14.16,47.84626,-54.09684
2021-10-31 18:49:00+00:00,316.9297,10.2,14.16,47.84626,-54.09684
2021-10-31 18:59:00+00:00,320.7513,10.13,14.16,47.84626,-54.09684
2021-10-31 19:09:00+00:00,318.9631,10.1,14.16,47.84626,-54.09684
2021-10-31 19:19:00+00:00,322.7013,10.12,13.92,47.84626,-54.09684
2021-10-31 19:29:00+00:00,326.8097,10.15,13.92,47.84626,-54.09684
2021-10-31 19:39:00+00:00,323.1047,10.19,13.92,47.84626,-54.09684
2021-10-31 19:49:00+00:00,323.5714,10.2,13.92,47.84626,-54.09684
2021-10-31 19:59:00+00:00,333.6614,10.2,13.92,47.84626,-54.09684
2021-10-31 20:09:00+00:00,337.8512,10.2,13.92,47.84626,-54.09684
2021-10-31 20:19:00+00:00,327.298,10.2,13.37,47.84626,-54.09684
2021-10-31 20:29:00+00:00,326.1013,10.17,13.37,47.84626,-54.09684
2021-10-31 20:39:00+00:00,334.5714,10.18,13.37,47.84626,-54.09684
2021-10-31 20:49:00+00:00,337.5147,10.19,13.37,47.84626,-54.09684
2021-10-31 20:59:00+00:00,329.49300000000005,10.17,13.37,47.84626,-54.09684
2021-10-31 21:09:00+00:00,327.5979,10.1,13.37,47.84626,-54.09684
2021-10-31 21:19:00+00:00,328.8096,10.1,12.97,47.84626,-54.09684
2021-10-31 21:29:00+00:00,323.8063,10.1,12.97,47.84626,-54.09684
2021-10-31 21:39:00+00:00,317.6446,10.1,12.97,47.84626,-54.09684
2021-10-31 21:49:00+00:00,320.3164,10.1,12.97,47.84626,-54.09684
2021-10-31 21:59:00+00:00,324.4014,10.1,12.97,47.84626,-54.09684
2021-10-31 22:09:00+00:00,318.0197,10.1,12.97,47.84626,-54.09684
2021-10-31 22:19:00+00:00,310.8796,10.1,12.73,47.84626,-54.09684
2021-10-31 22:29:00+00:00,310.928,10.1,12.73,47.84626,-54.09684
2021-10-31 22:39:00+00:00,306.8214,10.13,12.73,47.84626,-54.09684
2021-10-31 22:49:00+00:00,299.1613,10.13,12.73,47.84626,-54.09684
2021-10-31 22:59:00+00:00,292.593,10.1,12.73,47.84626,-54.09684
2021-10-31 23:09:00+00:00,291.363,10.1,12.73,47.84626,-54.09684
2021-10-31 23:19:01+00:00,282.3931,10.13,12.65,47.84626,-54.09684
2021-10-31 23:29:01+00:00,274.3964,10.1,12.65,47.84626,-54.09684
2021-10-31 23:39:01+00:00,268.5515,10.1,12.65,47.84626,-54.09684
2021-10-31 23:49:01+00:00,266.9447,10.1,12.65,47.84626,-54.09684
2021-10-31 23:59:01+00:00,259.6747,10.1,12.65,47.84626,-54.09684
